Regional Weather Roundup
Issued by NWS

Home | Current Version | Previous Version | Graphics & Text | Print | Product List | Glossary On
Versions: 1 2 3 4 5 6 7 8 9 10 11 12 13 14 15 16 17 18 19 20 21 22 23 24 25 26 27 28
000
ASUS45 KCYS 261710
RWRWY

WYOMING REGIONAL WEATHER ROUNDUP
NATIONAL WEATHER SERVICE CHEYENNE WY
1100 AM MDT THU MAY 26 2016

NOTE:  "FAIR" INDICATES FEW OR NO CLOUDS BELOW 12,000 FEET
WITH NO SIGNIFICANT WEATHER AND/OR OBSTRUCTIONS TO VISIBILITY.

WYZ001-261800-
YELLOWSTONE NATIONAL PARK

CITY           SKY/WX    TMP DP  RH WIND       PRES   REMARKS
LK YELLOWSTONE   N/A     43  34  70 VRB5      30.11S
W YELLOWSTONE  NOT AVBL

$$
WYZ002>013-054>058-071-098>099-261800-
NORTHERN WYOMING

CITY           SKY/WX    TMP DP  RH WIND       PRES   REMARKS
JACKSON        MOSUNNY   50  37  62 CALM      30.07F
CODY           FAIR      57  41  54 N6        29.97F
GREYBULL       PTSUNNY   58  45  62 N3        29.98S
WORLAND        FAIR      58  45  62 VRB5      29.98F
SHERIDAN       CLOUDY    54  45  71 W12G21    29.96F
BUFFALO          N/A    N/A N/A N/A MISG      29.98F
GILLETTE       FAIR      59  39  47 NW12G20   29.94S
HULETT         PTSUNNY   59  39  47 W13G20    29.94F
NEWCASTLE      FAIR      61  34  36 N3        29.95F

$$
WYZ014>020-022>026-101>103-261800-
CENTRAL WYOMING

CITY           SKY/WX    TMP DP  RH WIND       PRES   REMARKS
BIG PINEY      FAIR      55  30  38 N9        30.06F
PINEDALE       FAIR      52  28  40 W3        30.05F
DUBOIS         FAIR      52  23  32 CALM      30.03F
LANDER         FAIR      58  36  43 VRB6      30.00S
RIVERTON       FAIR      58  36  43 VRB5      30.01F
CASPER         FAIR      59  38  45 W7        29.98F
DOUGLAS          N/A    N/A N/A N/A MISG      29.98F

$$
WYZ021-027>030-104>119-261800-
SOUTHERN WYOMING

CITY           SKY/WX    TMP DP  RH WIND       PRES   REMARKS
EVANSTON       FAIR      50  36  58 MISG      30.07F
KEMMERER         N/A     52  32  46 W3        30.08S
FORT BRIDGER   SUNNY     52  36  54 N3        30.10F
ROCK SPRINGS   FAIR      52  35  52 NW9       30.05F
DIXON          FAIR      59  36  42 N8        30.03S
RAWLINS        FAIR      55  34  45 E6        30.03F
SARATOGA       FAIR      54  32  43 N13       30.04F
LARAMIE        FAIR      57  32  38 N8        30.00F
CHEYENNE       PTSUNNY   62  36  37 S8        29.98F
TORRINGTON     FAIR      65  36  34 NW8       29.93S
PINE BLUFFS    PTSUNNY   61  36  39 CALM      29.97F THUNDER

$$




USA.gov is the U.S. government's official web portal to all federal, state and local government web resources and services.